Preview of NWS' New Version of Forecast
This preview is not operational and should not be used for support decisions.

Regional Weather Roundup (RWR)

Issued by National Weather Service (NWS)

                            
000
ASUS46 KPQR 231610
RWROR 

OREGON REGIONAL WEATHER ROUNDUP
NATIONAL WEATHER SERVICE PORTLAND OR
900 AM PDT SUN JUN 23 2019

NOTE: "FAIR" INDICATES FEW OR NO CLOUDS BELOW 12,000 FEET WITH
NO SIGNIFICANT WEATHER AND/OR OBSTRUCTIONS TO VISIBILITY.

ORZ001>013-231700-
NORTHWEST OREGON

  
CITY           SKY/WX    TMP DP  RH WIND       PRES   REMARKS
ASTORIA        CLOUDY    56  52  86 W7        30.24S                  
TILLAMOOK      CLOUDY    55  48  76 NW3       30.27S                  
NEWPORT        CLOUDY    54  52  94 N7        30.29S                  
PORTLAND       PTSUNNY   58  46  64 CALM      30.24S                  
VANCOUVER WA   CLOUDY    57  46  66 VRB5      30.24S                  
SCAPPOOSE      CLOUDY    57  48  72 VRB6      30.23S                  
HILLSBORO      PTSUNNY   59  46  62 NW10      30.24R                  
AURORA         CLOUDY    59  46  62 N7        30.25R                  
MCMINNVILLE    PTSUNNY   59  49  69 CALM      30.24R                  
SALEM          PTSUNNY   60  47  61 NW6       30.23S                  
CORVALLIS      CLOUDY    60  49  66 VRB6      30.24S                  
EUGENE         PTSUNNY   61  50  67 E5        30.24S                  
$$

ORZ021-028-231700-
SOUTHWEST OREGON

  
CITY           SKY/WX    TMP DP  RH WIND       PRES   REMARKS
NORTH BEND     CLOUDY    59  51  75 N14       30.26S                  
BROOKINGS      SUNNY     74  42  31 NW9       30.11S                  
ROSEBURG       CLOUDY    59  50  72 N8        30.23S                  
SEXTON SUMMIT  SUNNY     55  46  71 N5        30.22S                  
GRANTS PASS    FAIR      63  46  55 CALM      30.22S                  
MEDFORD        SUNNY     62  42  47 CALM      30.18F                  
$$

ORZ014>016-041-231700-
COLUMBIA GORGE

  
CITY           SKY/WX    TMP DP  RH WIND       PRES   REMARKS
TROUTDALE      CLOUDY    58  48  69 NW6       30.24S                  
HOOD RIVER     CLOUDY    57  45  62 NW14G21   30.17R                  
THE DALLES     SUNNY     65  47  52 NW17      30.13R                  
$$

ORZ029>031-041-044-049-050-061>064-502-503-505>511-231700-
EASTERN OREGON

  
CITY           SKY/WX    TMP DP  RH WIND       PRES   REMARKS
MADRAS         SUNNY     57  41  54 W6        30.18S                  
REDMOND        SUNNY     61  37  41 W10       30.16S                  
BEND           SUNNY     61  36  39 N3        30.16S                  
PRINEVILLE     SUNNY     57  39  51 W7        30.16S                  
KLAMATH FALLS  SUNNY     59  41  51 VRB3      30.20S                  
LAKEVIEW       SUNNY     58  40  51 VRB3      30.20S                  
HERMISTON      SUNNY     68  47  46 SW20      30.06R                  
PENDLETON      PTSUNNY   63  44  50 W21G26    30.07R                  
JOHN DAY       SUNNY     57  41  53 NW9       30.14S                  
MEACHAM        CLOUDY    50  41  71 VRB5      30.12R                  
LA GRANDE      CLOUDY    58  40  51 W15       30.11S                  
BAKER CITY     MOSUNNY   60  42  51 N14       30.09S                  
BURNS          SUNNY     59  34  39 NW9       30.15S                  
ROME             N/A     67  34  29 CALM      30.10S                  
ONTARIO        SUNNY     70  38  31 NW10      30.05S                  
$$